White Plains, CT

8:32 AM EST on November 21, 2019 (GMT -0500)
Westchester County

Weather History for KHPN - September, 2019

Change the Weather History Date:

Saturday, September 14, 2019

  Actual Average Record
Temperature  
Mean Temperature 64 °F -  
Max Temperature 71 °F 72 °F 90 °F (2016)
Min Temperature 57 °F 55 °F 42 °F (1975)
Degree Days  
Heating Degree Days 1    
Growing Degree Days 14 (Base 50)    
Moisture  
Dew Point 60 °F    
Average Humidity 80    
Maximum Humidity 93    
Minimum Humidity 63    
Precipitation  
Precipitation 0.02 in - - ()
Sea Level Pressure  
Sea Level Pressure 30.26 in    
Wind  
Wind Speed 5 mph ()    
Max Wind Speed 13 mph    
Max Gust Speed 22 mph    
Visibility 9.7 miles    
Events      
Averages and records for this station are not official NWS values.
T = Trace of Precipitation, MM = Missing Value Source: Averaged Metar Reports

Daily Weather History Graph

Daily Weather History Graph

Search for Another Location

Airport or City:

Astronomy

Sep. 14, 2019 Rise Set
Actual Time 6:34 AM EDT 7:06 PM EDT
Civil Twilight 6:06 AM EDT 7:33 PM EDT
Nautical Twilight 5:33 AM EDT 8:06 PM EDT
Astronomical Twilight 5:00 AM EDT 8:39 PM EDT
Moon 7:46 PM EDT (9/14) 6:44 AM EDT (9/14)
Length of Visible Light 13h 27m
Length of Day
12h 31m
Full, 100% of the Moon is Illuminated
Sep 14
Full
Sep 21
Last Quarter
Sep 28
New
Oct 5
First Quarter
Oct 13
Full

Hourly Weather History & Observations

Time (EDT) Temp. Dew Point Humidity Pressure Visibility Wind Dir Wind Speed Gust Speed Precip Events Conditions
12:56 AM 57.9 °F 50.0 °F 75% 30.40 in 10.0 mi ESE 5.8 mph - N/A   Mostly Cloudy
1:56 AM 59.0 °F 51.1 °F 75% 30.38 in 10.0 mi ESE 5.8 mph - N/A   Overcast
2:56 AM 60.1 °F 53.1 °F 78% 30.35 in 10.0 mi ESE 5.8 mph - N/A   Scattered Clouds
3:56 AM 57.9 °F 53.1 °F 84% 30.35 in 10.0 mi Calm Calm - N/A   Mostly Cloudy
4:56 AM 57.0 °F 54.0 °F 89% 30.33 in 10.0 mi Calm Calm - N/A   Mostly Cloudy
5:56 AM 59.0 °F 55.9 °F 90% 30.34 in 10.0 mi ESE 3.5 mph - N/A   Overcast
6:56 AM 60.1 °F 55.9 °F 86% 30.34 in 10.0 mi Calm Calm - N/A   Overcast
7:56 AM 62.1 °F 57.9 °F 86% 30.33 in 10.0 mi SE 3.5 mph - N/A   Mostly Cloudy
8:56 AM 66.0 °F 57.9 °F 75% 30.32 in 10.0 mi SE 6.9 mph - N/A   Scattered Clouds
9:56 AM 69.1 °F 57.9 °F 68% 30.32 in 10.0 mi South 10.4 mph 18.4 mph N/A   Overcast
10:56 AM 70.0 °F 57.9 °F 65% 30.30 in 10.0 mi South 10.4 mph 17.3 mph N/A   Mostly Cloudy
11:56 AM 71.1 °F 57.9 °F 63% 30.28 in 10.0 mi South 10.4 mph 17.3 mph N/A   Mostly Cloudy
12:56 PM 70.0 °F 59.0 °F 68% 30.27 in 10.0 mi SSE 12.7 mph 19.6 mph N/A   Mostly Cloudy
1:56 PM 70.0 °F 62.1 °F 76% 30.23 in 10.0 mi South 9.2 mph - 0.01 in   Mostly Cloudy
2:56 PM 70.0 °F 62.1 °F 76% 30.21 in 10.0 mi South 10.4 mph - N/A   Mostly Cloudy
3:05 PM 71.1 °F 63.0 °F 75% 30.22 in 10.0 mi South 9.2 mph 17.3 mph N/A   Overcast
3:56 PM 71.1 °F 63.0 °F 75% 30.19 in 10.0 mi South 12.7 mph 21.9 mph N/A   Overcast
4:56 PM 71.1 °F 64.0 °F 78% 30.19 in 10.0 mi South 9.2 mph - N/A   Overcast
5:56 PM 71.1 °F 64.9 °F 81% 30.17 in 10.0 mi South 10.4 mph - N/A   Overcast
6:56 PM 71.1 °F 66.0 °F 84% 30.17 in 10.0 mi South 4.6 mph - N/A   Mostly Cloudy
7:56 PM 70.0 °F 66.0 °F 87% 30.17 in 9.0 mi South 5.8 mph - 0.00 in   Light Drizzle
8:56 PM 70.0 °F 66.0 °F 87% 30.17 in 10.0 mi Calm Calm - 0.00 in   Overcast
9:56 PM 69.1 °F 66.9 °F 93% 30.17 in 10.0 mi Calm Calm - 0.01 in   Overcast
10:56 PM 69.1 °F 66.9 °F 93% 30.17 in 8.0 mi West 3.5 mph - 0.00 in   Light Drizzle
11:56 PM 69.1 °F 66.9 °F 93% 30.16 in 6.0 mi West 3.5 mph - 0.00 in   Mostly Cloudy